OE5MIL-13 Weather Reports


time (UTC)temp
F
wind
direction
speed
knots
gust
knots
rain 1hr
in
rain 24hr
in
rain mn
in
humidity
%
barometer
mb
20260505174328 50 317 3.5 7.0 0.00 0.00 0.00 100
20260505172327 52 260 5.2 11.3 0.00 0.00 0.00 100
20260505170325 49 115 0.9 10.4 0.00 0.00 0.00 100
20260505164324 48 248 3.5 11.3 0.00 0.00 0.00 100
20260505162323 50 217 3.5 13.0 0.00 0.00 0.00 100
20260505160322 51 85 3.5 12.2 0.00 0.00 0.00 100
20260505152320 58 160 15.6 15.6 0.00 0.00 0.00 100
20260505150318 58 57 3.5 9.6 0.00 0.00 0.00 100
20260505140315 66 156 4.3 8.7 0.00 0.00 0.00 100
20260505130312 64 150 3.5 6.1 0.00 0.00 0.00 100
20260505124310 64 157 6.1 6.1 0.00 0.00 0.00 100
20260505122309 64 189 2.6 7.0 0.00 0.00 0.00 100
20260505120308 64 205 0.0 7.0 0.00 0.00 0.00 100
20260505114307 61 164 7.0 7.0 0.00 0.00 0.00 100
20260505112306 61 154 1.7 7.8 0.00 0.00 0.00 100
20260505110349 60 185 4.3 7.8 0.00 0.00 0.00 100
20260505110305 60 185 4.3 7.8 0.00 0.00 0.00 100
20260505100301 57 8 0.0 0.0 0.00 0.00 0.00 100
20260505094300 57 137 0.0 8.7 0.00 0.00 0.00 100
20260505092259 53 281 0.9 4.3 0.00 0.00 0.00 100
20260505090258 54 254 0.0 1.7 0.00 0.00 0.00 100
20260505084257 52 281 0.0 3.5 0.00 0.00 0.00 100
20260505082255 51 300 1.7 4.3 0.00 0.00 0.00 100
20260505080254 50 327 1.7 3.5 0.00 0.00 0.00 100
20260505074253 50 307 3.5 5.2 0.00 0.00 0.00 100
20260505072252 49 286 0.0 2.6 0.00 0.00 0.00 100
20260505070251 47 331 3.5 3.5 0.00 0.00 0.00 100
20260505064250 46 295 0.0 2.6 0.00 0.00 0.00 100
20260505062249 43 8 0.0 0.0 0.00 0.00 0.00 100
20260505060248 43 49 0.0 0.0 0.00 0.00 0.00 100
20260505054246 41 49 0.0 0.0 0.00 0.00 0.00 100
20260505052245 40 49 0.0 0.0 0.00 0.00 0.00 100
20260505050244 38 49 0.0 0.0 0.00 0.00 0.00 100
20260505040241 36 49 0.0 0.0 0.00 0.00 0.00 100
20260505034239 38 49 0.0 0.0 0.00 0.00 0.00 100
20260505032238 37 49 0.0 0.0 0.00 0.00 0.00 100
20260505030237 38 49 0.0 0.0 0.00 0.00 0.00 100
20260505024236 38 49 0.0 0.9 0.00 0.00 0.00 100
20260505022235 39 97 0.0 0.0 0.00 0.00 0.00 100
20260505020234 40 97 0.0 0.0 0.00 0.00 0.00 100
20260505014232 39 225 0.0 0.0 0.00 0.00 0.00 100
20260505012231 40 225 0.0 0.0 0.00 0.00 0.00 100
20260505010230 41 225 0.0 0.0 0.00 0.00 0.00 100
20260505004229 42 225 0.0 0.0 0.00 0.00 0.00 100
20260505002228 45 182 0.0 4.3 0.00 0.00 0.00 100
20260505000227 44 168 3.5 7.0 0.00 0.00 0.00 100
20260504234226 43 219 0.9 3.5 0.00 0.00 0.00 100
20260504230223 46 178 3.5 7.0 0.00 0.00 0.00 100
20260504224222 46 260 3.5 6.1 0.00 0.00 0.00 100
20260504222221 46 184 7.0 11.3 0.00 0.00 0.00 100
20260504220220 47 281 3.5 11.3 0.00 0.00 0.00 100
20260504214219 47 278 7.0 9.6 0.00 0.00 0.00 100
20260504212218 47 167 7.8 7.8 0.00 0.00 0.00 100
20260504210216 46 267 0.0 0.0 0.00 0.00 0.00 100
20260504204215 46 182 0.0 4.3 0.00 0.00 0.00 100
20260504202214 48 246 3.5 4.3 0.00 0.00 0.00 100
20260504200213 48 223 3.5 7.0 0.00 0.00 0.00 100
20260504194212 49 180 0.0 5.2 0.00 0.00 0.00 100
20260504192211 48 222 0.0 2.6 0.00 0.00 0.00 100
20260504190210 48 192 0.0 1.7 0.00 0.00 0.00 100
20260504184208 49 306 0.0 7.8 0.00 0.00 0.00 100
20260504182207 49 229 0.0 1.7 0.00 0.00 0.00 100
20260504180206 50 219 0.0 8.7 0.00 0.00 0.00 100